Hourly Weather Bristol

Today, 29 September, Tuesday

Time Temperature Precipitation Wind Pressure Humidity
00:00 +15°C° 0 mm 2 mps 759 mmHg 96%
01:00 +15°C° 0 mm 2 mps 759 mmHg 95%
02:00 +14°C° 0 mm 2 mps 759 mmHg 93%
03:00 +14°C° 0 mm 2 mps 759 mmHg 91%
04:00 +14°C° 0 mm 2 mps 759 mmHg 91%
05:00 +13°C° 0 mm 1 mps 759 mmHg 91%
06:00 +13°C° 0 mm 2 mps 760 mmHg 90%
07:00 +14°C° 0 mm 1 mps 760 mmHg 85%
08:00 +15°C° 0 mm 1 mps 760 mmHg 81%
09:00 +15°C° 0 mm 1 mps 760 mmHg 76%
10:00 +16°C° 0.1 mm 1 mps 760 mmHg 71%
11:00 +18°C° 0.1 mm 1 mps 760 mmHg 66%
12:00 +19°C° 0.1 mm 1 mps 761 mmHg 60%
13:00 +18°C° 0 mm 2 mps 760 mmHg 60%
14:00 +18°C° 0 mm 2 mps 760 mmHg 60%
15:00 +18°C° 0 mm 2 mps 759 mmHg 60%
16:00 +16°C° 0 mm 2 mps 759 mmHg 65%
17:00 +15°C° 0 mm 2 mps 759 mmHg 71%
18:00 +14°C° 0 mm 2 mps 759 mmHg 77%
19:00 +13°C° 0 mm 2 mps 759 mmHg 76%
20:00 +13°C° 0 mm 2 mps 759 mmHg 75%
21:00 +13°C° 0 mm 2 mps 759 mmHg 74%
22:00 +12°C° 0 mm 2 mps 759 mmHg 76%
23:00 +12°C° 0 mm 2 mps 758 mmHg 78%

Tomorrow, 30 September, Wednesday

Time Temperature Precipitation Wind Pressure Humidity
00:00 +10°C° 0 mm 2 mps 758 mmHg 81%
01:00 +10°C° 0 mm 2 mps 757 mmHg 83%
02:00 +9°C° 0 mm 3 mps 757 mmHg 85%
03:00 +9°C° 0 mm 3 mps 756 mmHg 87%
04:00 +9°C° 0 mm 3 mps 755 mmHg 88%
05:00 +10°C° 0 mm 4 mps 755 mmHg 88%
06:00 +10°C° 0 mm 4 mps 754 mmHg 88%
07:00 +11°C° 0.6 mm 4 mps 754 mmHg 89%
08:00 +10°C° 0.6 mm 5 mps 753 mmHg 90%
09:00 +12°C° 0.6 mm 5 mps 753 mmHg 90%
10:00 +11°C° 0.9 mm 6 mps 752 mmHg 90%
11:00 +11°C° 0.9 mm 7 mps 751 mmHg 90%
12:00 +12°C° 0.9 mm 8 mps 750 mmHg 90%
13:00 +12°C° 1.2 mm 8 mps 749 mmHg 90%
14:00 +13°C° 1.2 mm 8 mps 748 mmHg 90%
15:00 +13°C° 1.2 mm 8 mps 748 mmHg 91%
16:00 +12°C° 0.7 mm 7 mps 748 mmHg 91%
17:00 +13°C° 0.7 mm 6 mps 748 mmHg 90%
18:00 +12°C° 0.7 mm 5 mps 748 mmHg 90%
19:00 +12°C° 0 mm 5 mps 748 mmHg 90%
20:00 +11°C° 0 mm 4 mps 748 mmHg 90%
21:00 +10°C° 0 mm 4 mps 749 mmHg 90%
22:00 +10°C° 0 mm 4 mps 749 mmHg 90%
23:00 +8°C° 0 mm 4 mps 749 mmHg 89%

Day after tomorrow, 1 October, Thursday

Time Temperature Precipitation Wind Pressure Humidity
00:00 +8°C° 0 mm 4 mps 749 mmHg 89%
01:00 +8°C° 0 mm 4 mps 749 mmHg 88%
02:00 +7°C° 0 mm 4 mps 749 mmHg 87%
03:00 +8°C° 0 mm 3 mps 748 mmHg 86%
04:00 +7°C° 0 mm 3 mps 748 mmHg 86%
05:00 +7°C° 0 mm 3 mps 748 mmHg 86%
06:00 +6°C° 0 mm 2 mps 748 mmHg 86%
07:00 +8°C° 0 mm 2 mps 748 mmHg 81%
08:00 +9°C° 0 mm 2 mps 748 mmHg 76%
09:00 +12°C° 0 mm 2 mps 748 mmHg 72%
10:00 +12°C° 0.1 mm 2 mps 748 mmHg 67%
11:00 +12°C° 0.1 mm 3 mps 748 mmHg 63%
12:00 +13°C° 0.1 mm 3 mps 748 mmHg 59%
13:00 +13°C° 0.2 mm 3 mps 747 mmHg 60%
14:00 +13°C° 0.2 mm 3 mps 747 mmHg 62%
15:00 +13°C° 0.2 mm 3 mps 746 mmHg 63%
16:00 +12°C° 0.7 mm 3 mps 746 mmHg 69%
17:00 +11°C° 0.7 mm 3 mps 745 mmHg 75%
18:00 +10°C° 0.7 mm 3 mps 745 mmHg 81%
19:00 +9°C° 0.3 mm 3 mps 744 mmHg 83%
20:00 +9°C° 0.3 mm 3 mps 744 mmHg 85%
21:00 +8°C° 0.3 mm 2 mps 744 mmHg 87%
22:00 +9°C° 0.1 mm 2 mps 743 mmHg 87%
23:00 +9°C° 0.1 mm 2 mps 743 mmHg 87%

2 October, Friday

Time Temperature Precipitation Wind Pressure Humidity
00:00 +9°C° 0.1 mm 2 mps 743 mmHg 86%
01:00 +9°C° 0 mm 2 mps 742 mmHg 88%
02:00 +8°C° 0 mm 3 mps 742 mmHg 90%
03:00 +8°C° 0 mm 3 mps 742 mmHg 92%
04:00 +7°C° 0 mm 4 mps 742 mmHg 92%
05:00 +7°C° 0 mm 4 mps 742 mmHg 91%
06:00 +8°C° 0 mm 4 mps 742 mmHg 91%
07:00 +8°C° 0 mm 5 mps 742 mmHg 88%
08:00 +9°C° 0 mm 6 mps 742 mmHg 86%
09:00 +9°C° 0 mm 7 mps 742 mmHg 83%
10:00 +10°C° 0 mm 8 mps 742 mmHg 79%
11:00 +11°C° 0 mm 8 mps 742 mmHg 76%
12:00 +12°C° 0 mm 9 mps 741 mmHg 72%
13:00 +11°C° 1.1 mm 9 mps 741 mmHg 78%
14:00 +11°C° 1.1 mm 9 mps 741 mmHg 84%
15:00 +10°C° 1.1 mm 8 mps 741 mmHg 91%
16:00 +10°C° 0.4 mm 8 mps 742 mmHg 91%
17:00 +11°C° 0.4 mm 9 mps 742 mmHg 91%
18:00 +11°C° 0.4 mm 9 mps 742 mmHg 91%
19:00 +11°C° 0.6 mm 9 mps 743 mmHg 92%
20:00 +11°C° 0.6 mm 9 mps 743 mmHg 92%
21:00 +11°C° 0.6 mm 9 mps 743 mmHg 92%
22:00 +11°C° 0.4 mm 9 mps 743 mmHg 92%
23:00 +12°C° 0.4 mm 9 mps 743 mmHg 92%

3 October, Saturday

Time Temperature Precipitation Wind Pressure Humidity
00:00 +12°C° 0.4 mm 9 mps 743 mmHg 92%
01:00 +12°C° 0.4 mm 9 mps 743 mmHg 92%
02:00 +12°C° 0.4 mm 9 mps 742 mmHg 92%
03:00 +12°C° 0.4 mm 9 mps 742 mmHg 93%
04:00 +12°C° 0.3 mm 9 mps 742 mmHg 93%
05:00 +12°C° 0.3 mm 9 mps 742 mmHg 92%
06:00 +12°C° 0.3 mm 9 mps 742 mmHg 92%
07:00 +12°C° 0.4 mm 9 mps 742 mmHg 92%
08:00 +13°C° 0.4 mm 8 mps 742 mmHg 92%
09:00 +13°C° 0.4 mm 8 mps 742 mmHg 92%
10:00 +12°C° 0.6 mm 7 mps 742 mmHg 92%
11:00 +13°C° 0.6 mm 6 mps 742 mmHg 92%
12:00 +13°C° 0.6 mm 6 mps 742 mmHg 92%
13:00 +13°C° 1.1 mm 5 mps 741 mmHg 93%
14:00 +12°C° 1.1 mm 4 mps 741 mmHg 94%
15:00 +12°C° 1.1 mm 3 mps 740 mmHg 94%
16:00 +12°C° 2.4 mm 3 mps 740 mmHg 95%
17:00 +11°C° 2.4 mm 4 mps 740 mmHg 95%
18:00 +11°C° 2.4 mm 4 mps 739 mmHg 95%
19:00 +11°C° 1.6 mm 4 mps 739 mmHg 95%
20:00 +11°C° 1.6 mm 4 mps 738 mmHg 94%
21:00 +10°C° 1.6 mm 5 mps 738 mmHg 94%
22:00 +9°C° 1.8 mm 5 mps 737 mmHg 94%
23:00 +9°C° 1.8 mm 5 mps 737 mmHg 94%

4 October, Sunday

Time Temperature Precipitation Wind Pressure Humidity
00:00 +8°C° 1.8 mm 5 mps 736 mmHg 93%
01:00 +8°C° 2 mm 5 mps 736 mmHg 94%
02:00 +8°C° 2 mm 4 mps 735 mmHg 95%
03:00 +9°C° 2 mm 3 mps 735 mmHg 95%
04:00 +8°C° 2.2 mm 4 mps 735 mmHg 95%
05:00 +8°C° 2.2 mm 4 mps 735 mmHg 96%
06:00 +8°C° 2.2 mm 4 mps 735 mmHg 96%
07:00 +10°C° 1.2 mm 3 mps 735 mmHg 95%
08:00 +10°C° 1.2 mm 3 mps 735 mmHg 95%
09:00 +10°C° 1.2 mm 3 mps 734 mmHg 95%
10:00 +10°C° 0.9 mm 3 mps 735 mmHg 94%
11:00 +11°C° 0.9 mm 4 mps 735 mmHg 93%
12:00 +11°C° 0.9 mm 4 mps 735 mmHg 93%
13:00 +12°C° 0.2 mm 4 mps 735 mmHg 92%
14:00 +12°C° 0.2 mm 4 mps 735 mmHg 91%
15:00 +12°C° 0.2 mm 4 mps 735 mmHg 90%
16:00 +12°C° 0.1 mm 3 mps 735 mmHg 91%
17:00 +11°C° 0.1 mm 3 mps 735 mmHg 91%
18:00 +12°C° 0.1 mm 2 mps 735 mmHg 92%
19:00 +12°C° 0.1 mm 2 mps 735 mmHg 92%
20:00 +11°C° 0.1 mm 3 mps 735 mmHg 92%
21:00 +11°C° 0.1 mm 3 mps 735 mmHg 92%
22:00 +11°C° 0.4 mm 4 mps 735 mmHg 93%
23:00 +10°C° 0.4 mm 5 mps 735 mmHg 94%
Show more

We Need Your Consent

Meteoprog and our Service Providers may store and access personal data such as cookies, device identifiers or other similar technologies on your device and process such data to personalise content and ads, as well as provide social media features and to analyse the traffic.

  • Store and/or access information on your device

    Cookies, device identifiers or other information can be stored or accessed on your device for the purposes indicated above.

  • Personalised ads and content, ad and content measurement, audience insights, and products development

    Ads and content can be personalised based on a profile. More data can be added to better personalise ads and content. Ad and content performance can be measured. Insights about the audience who saw the ads and content can be derived. Such data can be used to develop or improve user’s experience, systems and software.

By clicking ‘I Agree’ you will allow the use of indicated cookies, device identifiers, web beacons or other similar technologies. Your settings can be changed in the browser on your device.

For certain purposes, legitimate interests may be relied on, rather than consent. You can read more about this in our Privacy and Cookie Policy.